This is the latest recevied weather packets stored in our database for station/object KJ6HT. If no packets are shown the sender has not sent any weather packets the latest 10 day(s).
| Time | Temp. | Humidity | Pressure | Rain* | Wind** | Luminosity | Snow |
|---|---|---|---|---|---|---|---|
| 1788156070 | 74° F | 76% | 757.8 mmHg | 0 in | - | - | - |
| 1788155109 | 74° F | 75% | 757.6 mmHg | 0 in | - | - | - |
| 1788154279 | 74° F | 74% | 757.7 mmHg | 0 in | - | - | - |
| 1788153341 | 76° F | 70% | 757.8 mmHg | 0 in | - | - | - |
| 1788152475 | 75° F | 73% | 757.7 mmHg | 0 in | - | - | - |
| 1788151531 | 76° F | 70% | 757.7 mmHg | 0 in | - | - | - |
| 1788150689 | 76° F | 69% | 757.5 mmHg | 0 in | - | - | - |
| 1788149749 | 76° F | 69% | 757.3 mmHg | 0 in | - | - | - |
| 1788148823 | 77° F | 69% | 757.1 mmHg | 0 in | - | - | - |
| 1788147973 | 78° F | 68% | 756.9 mmHg | 0 in | - | - | - |
| 1788147057 | 78° F | 66% | 756.7 mmHg | 0 in | - | - | - |
| 1788146101 | 79° F | 65% | 756.4 mmHg | 0 in | - | - | - |
| 1788145267 | 80° F | 65% | 756.1 mmHg | 0 in | - | - | - |
| 1788144336 | 80° F | 64% | 756.1 mmHg | 0 in | - | - | - |
| 1788143403 | 81° F | 61% | 756 mmHg | 0 in | - | - | - |
| 1788142551 | 83° F | 58% | 755.8 mmHg | 0 in | - | - | - |
| 1788141614 | 84° F | 55% | 755.8 mmHg | 0 in | - | - | - |
| 1788140783 | 85° F | 53% | 755.8 mmHg | 0 in | - | - | - |
| 1788139809 | 86° F | 51% | 755.8 mmHg | 0 in | - | - | - |
| 1788138963 | 87° F | 50% | 755.8 mmHg | 0 in | - | - | - |
| 1788138058 | 89° F | 47% | 755.7 mmHg | 0 in | - | - | - |
| 1788137115 | 90° F | 46% | 755.8 mmHg | 0 in | - | - | - |
| 1788136278 | 90° F | 46% | 755.7 mmHg | 0 in | - | - | - |
| 1788135331 | 91° F | 45% | 755.7 mmHg | 0 in | - | - | - |
| 1788134417 | 91° F | 46% | 755.6 mmHg | 0 in | - | - | - |
* Rain latest hour (hover to see other rain measurements)
** Current wind speed in m/s (hover to see current wind gust speed)